Tracking 35051 objects as of 17-Aug-2026
HD Live streaming from Space Station
objects crossing your sky now

STARLINK-31350

Track STARLINK-31350 now!
10-day predictions
STARLINK-31350 is classified as:


NORAD ID: 58933
Int'l Code: 2024-027C
Launch date: February 10, 2024
Source: United States (US)
Launch site: AIR FORCE WESTERN TEST RANGE (AFWTR)
Your satellite tracking list
Your tracking list is empty




NASA's NSSDC Master Catalog

Two Line Element Set (TLE):
1 58933U 24027C   26229.56174403  .00058422  00000-0  17312-2 0  9991
2 58933  53.1594 282.0302 0001364  97.4498 262.6659 15.34319420141968
Source of the keplerian elements: AFSPC